GW2963 Weather Reports


time (UTC)temp
C
wind
direction
speed
KPH
gust
KPH
rain 1hr
cm
rain 24hr
cm
rain mn
cm
humidity
%
barometer
mb
20260506212839 22 312 3.2 4.8 0.00 0.00 0.00 66 1020.5
20260506212336 22 278 6.4 11.3 0.00 0.00 0.00 65 1020.5
20260506211830 23 15 3.2 3.2 0.00 0.00 0.00 65 1020.4
20260506211327 23 346 8.0 9.7 0.00 0.00 0.00 63 1020.1
20260506210824 23 27 6.4 9.7 0.00 0.00 0.00 64 1020.4
20260506210321 23 318 1.6 1.6 0.00 0.00 0.00 61 1020.4
20260506205818 23 232 3.2 4.8 0.00 0.00 0.00 59 1020.3
20260506205314 23 293 4.8 6.4 0.00 0.00 0.00 60 1020.3
20260506204810 24 253 8.0 12.9 0.00 0.00 0.00 60 1020.4
20260506204308 24 230 8.0 9.7 0.00 0.00 0.00 59 1020.5
20260506203806 23 7 3.2 3.2 0.00 0.00 0.00 63 1020.6
20260506203303 22 33 1.6 3.2 0.00 0.00 0.00 65 1020.6
20260506202800 23 283 1.6 1.6 0.00 0.00 0.00 63 1020.7
20260506202257 23 317 1.6 3.2 0.00 0.00 0.00 62 1020.7
20260506201753 22 24 3.2 3.2 0.00 0.00 0.00 61 1020.7
20260506201250 22 33 0.0 1.6 0.00 0.00 0.00 62 1020.9
20260506200747 22 30 0.0 1.6 0.00 0.00 0.00 61 1021.0
20260506200243 22 33 4.8 6.4 0.00 0.00 0.00 60 1020.7
20260506195740 22 350 1.6 3.2 0.00 0.00 0.00 59 1020.8
20260506195236 23 245 3.2 3.2 0.00 0.00 0.00 57 1021.0
20260506194734 22 274 0.0 0.0 0.00 0.00 0.00 58 1021.1
20260506194230 21 279 3.2 3.2 0.00 0.00 0.00 62 1021.1
20260506193728 22 347 4.8 4.8 0.00 0.00 0.00 62 1021.4
20260506193225 22 345 1.6 1.6 0.00 0.00 0.00 62 1021.4
20260506192721 22 40 1.6 1.6 0.00 0.00 0.00 62 1021.1
20260506192218 21 34 0.0 0.0 0.00 0.00 0.00 62 1021.2
20260506191715 22 12 6.4 6.4 0.00 0.00 0.00 60 1021.4
20260506191211 23 110 3.2 3.2 0.00 0.00 0.00 58 1021.5
20260506190708 23 52 1.6 3.2 0.00 0.00 0.00 59 1021.4
20260506190205 23 86 0.0 0.0 0.00 0.00 0.00 59 1021.5
20260506185702 23 53 0.0 1.6 0.00 0.00 0.00 59 1021.5
20260506185158 22 40 0.0 1.6 0.00 0.00 0.00 62 1021.6
20260506184656 22 93 1.6 1.6 0.00 0.00 0.00 62 1021.6
20260506184153 22 28 1.6 1.6 0.00 0.00 0.00 61 1021.6
20260506183650 22 326 1.6 1.6 0.00 0.00 0.00 62 1021.6
20260506183145 21 336 1.6 1.6 0.00 0.00 0.00 64 1021.6
20260506182643 21 12 6.4 9.7 0.00 0.00 0.00 66 1021.9
20260506182140 21 21 4.8 4.8 0.00 0.00 0.00 65 1021.7
20260506181638 21 209 3.2 3.2 0.00 0.00 0.00 64 1021.8
20260506181135 21 268 1.6 1.6 0.00 0.00 0.00 65 1021.8
20260506180632 20 163 1.6 3.2 0.00 0.00 0.00 67 1021.7
20260506180128 20 167 1.6 1.6 0.00 0.00 0.00 67 1021.6
20260506175624 20 183 3.2 3.2 0.00 0.00 0.00 67 1021.7
20260506175120 20 196 3.2 4.8 0.00 0.00 0.00 69 1021.6
20260506174619 20 152 1.6 4.8 0.00 0.00 0.00 68 1021.5
20260506174116 20 228 1.6 3.2 0.00 0.00 0.00 69 1021.8
20260506173613 20 33 0.0 0.0 0.00 0.00 0.00 68 1021.7
20260506173110 20 337 3.2 4.8 0.00 0.00 0.00 68 1021.9
20260506172608 20 11 6.4 6.4 0.00 0.00 0.00 68 1021.7
20260506172103 20 36 3.2 3.2 0.00 0.00 0.00 67 1021.5
20260506171601 20 41 1.6 3.2 0.00 0.00 0.00 67 1021.7
20260506171058 20 122 1.6 3.2 0.00 0.00 0.00 69 1021.6
20260506170555 20 7 0.0 0.0 0.00 0.00 0.00 69 1021.8
20260506170048 20 306 1.6 1.6 0.00 0.00 0.00 70 1021.9
20260506165546 19 210 0.0 1.6 0.00 0.00 0.00 69 1021.8
20260506165042 18 294 1.6 1.6 0.00 0.00 0.00 71 1021.9
20260506164539 18 173 1.6 1.6 0.00 0.00 0.00 72 1021.7
20260506164036 17 237 3.2 4.8 0.00 0.00 0.00 74 1022.0
20260506163532 18 245 1.6 3.2 0.00 0.00 0.00 72 1021.8
20260506163028 17 277 4.8 6.4 0.00 0.00 0.00 74 1021.8
20260506162524 17 239 1.6 1.6 0.00 0.00 0.00 75 1021.9
20260506162021 17 266 4.8 6.4 0.00 0.00 0.00 75 1021.9
20260506161518 17 185 3.2 3.2 0.00 0.00 0.00 76 1021.9
20260506161010 16 226 4.8 4.8 0.00 0.00 0.00 77 1021.9
20260506160508 16 281 0.0 0.0 0.00 0.00 0.00 77 1021.8
20260506160005 16 265 3.2 3.2 0.00 0.00 0.00 78 1021.8
20260506155502 16 265 3.2 6.4 0.00 0.00 0.00 78 1021.9
20260506153634 15 293 3.2 4.8 0.00 0.00 0.00 81 1021.8
20260506153132 15 248 1.6 3.2 0.00 0.00 0.00 81 1021.9
20260506152628 15 258 3.2 4.8 0.00 0.00 0.00 82 1021.9
20260506152126 15 283 1.6 1.6 0.00 0.00 0.00 83 1021.7
20260506151625 15 232 3.2 3.2 0.00 0.00 0.00 83 1021.6
20260506151121 14 285 3.2 4.8 0.00 0.00 0.00 85 1021.6
20260506150618 14 260 3.2 4.8 0.00 0.00 0.00 85 1021.6
20260506150115 14 263 3.2 4.8 0.00 0.00 0.00 85 1021.8
20260506145612 14 273 3.2 3.2 0.00 0.00 0.00 86 1021.6
20260506145109 13 283 4.8 4.8 0.00 0.00 0.00 86 1021.7
20260506144606 13 230 3.2 3.2 0.00 0.00 0.00 87 1021.8
20260506144102 13 294 1.6 1.6 0.00 0.00 0.00 86 1021.7
20260506143601 13 239 3.2 3.2 0.00 0.00 0.00 87 1021.5
20260506143058 13 275 3.2 4.8 0.00 0.00 0.00 87 1021.5
20260506142556 13 268 4.8 6.4 0.00 0.00 0.00 87 1021.6
20260506142054 13 297 3.2 3.2 0.00 0.00 0.00 87 1021.6
20260506141551 13 357 0.0 1.6 0.00 0.00 0.00 88 1021.5
20260506141050 13 350 1.6 1.6 0.00 0.00 0.00 88 1021.4
20260506140547 13 292 1.6 3.2 0.00 0.00 0.00 88 1021.2
20260506140044 13 348 0.0 0.0 0.00 0.00 0.00 89 1021.1
20260506135541 13 348 0.0 0.0 0.00 0.00 0.00 89 1021.1
20260506135037 13 353 0.0 0.0 0.00 0.00 0.00 89 1021.1
20260506134534 13 23 0.0 0.0 0.00 0.00 0.00 89 1021.1
20260506134029 13 349 0.0 1.6 0.00 0.00 0.00 89 1020.9
20260506133527 13 273 1.6 1.6 0.00 0.00 0.00 89 1021.0
20260506133024 13 346 0.0 0.0 0.00 0.00 0.00 89 1021.0
20260506132521 13 320 0.0 0.0 0.00 0.00 0.00 90 1020.9
20260506132018 13 329 0.0 0.0 0.00 0.00 0.00 90 1021.1
20260506131515 13 2 0.0 0.0 0.00 0.00 0.00 90 1021.0
20260506131012 13 353 0.0 0.0 0.00 0.00 0.00 90 1020.9
20260506130508 13 347 0.0 0.0 0.00 0.00 0.00 90 1020.8
20260506130006 13 323 1.6 1.6 0.00 0.00 0.00 90 1020.9
20260506125504 13 332 1.6 1.6 0.00 0.00 0.00 90 1020.9
20260506125001 13 273 3.2 4.8 0.00 0.00 0.00 90 1020.8
20260506124459 13 322 3.2 3.2 0.00 0.00 0.00 90 1020.7
20260506123957 13 316 1.6 1.6 0.00 0.00 0.00 90 1020.8
20260506123455 12 309 1.6 3.2 0.00 0.00 0.00 90 1020.7
20260506122952 13 269 4.8 4.8 0.00 0.00 0.00 90 1020.8
20260506122449 13 343 1.6 1.6 0.00 0.00 0.00 90 1020.7
20260506121947 13 341 0.0 1.6 0.00 0.00 0.00 90 1020.7
20260506121444 13 350 0.0 0.0 0.00 0.00 0.00 90 1020.7
20260506120940 13 293 3.2 3.2 0.00 0.00 0.00 90 1020.5
20260506120438 12 356 1.6 1.6 0.00 0.00 0.00 90 1020.6
20260506115935 12 352 0.0 0.0 0.00 0.00 0.00 90 1020.7
20260506115433 12 284 1.6 3.2 0.00 0.00 0.00 90 1020.7
20260506114931 12 33 1.6 3.2 0.00 0.00 0.00 90 1020.5
20260506114429 13 318 3.2 3.2 0.00 0.00 0.00 90 1020.5
20260506113927 13 349 0.0 0.0 0.00 0.00 0.00 90 1020.6
20260506113424 13 339 0.0 1.6 0.00 0.00 0.00 90 1020.4
20260506112915 12 308 0.0 1.6 0.00 0.00 0.00 90 1020.4
20260506112413 13 342 1.6 1.6 0.00 0.00 0.00 90 1020.6
20260506111910 13 311 1.6 1.6 0.00 0.00 0.00 90 1020.4
20260506111408 13 21 1.6 1.6 0.00 0.00 0.00 90 1020.2
20260506110905 13 3 0.0 0.0 0.00 0.00 0.00 90 1020.3
20260506110402 13 351 0.0 0.0 0.00 0.00 0.00 90 1020.4
20260506105859 13 6 0.0 0.0 0.00 0.00 0.00 90 1020.3
20260506105355 13 13 0.0 0.0 0.00 0.00 0.00 90 1020.2
20260506104853 13 357 0.0 0.0 0.00 0.00 0.00 90 1020.1
20260506104350 13 13 0.0 0.0 0.00 0.00 0.00 89 1020.2
20260506103848 13 250 1.6 1.6 0.00 0.00 0.00 89 1020.0
20260506103345 13 7 1.6 1.6 0.00 0.00 0.00 89 1020.1
20260506102842 13 294 4.8 4.8 0.00 0.00 0.00 90 1020.1
20260506102340 12 308 3.2 3.2 0.00 0.00 0.00 90 1019.9
20260506101837 13 337 1.6 1.6 0.00 0.00 0.00 90 1020.1
20260506101333 13 359 0.0 0.0 0.00 0.00 0.00 90 1019.9
20260506100831 13 17 0.0 0.0 0.00 0.00 0.00 90 1020.0
20260506100329 13 21 0.0 1.6 0.00 0.00 0.00 90 1019.9
20260506095827 13 8 1.6 1.6 0.00 0.00 0.00 90 1019.9
20260506095324 13 353 0.0 0.0 0.00 0.00 0.00 90 1020.1
20260506094821 13 15 0.0 0.0 0.00 0.00 0.00 90 1020.0
20260506094320 13 16 0.0 0.0 0.00 0.00 0.00 90 1020.0
20260506093818 13 22 0.0 0.0 0.00 0.00 0.00 90 1020.1
20260506093314 12 302 1.6 3.2 0.00 0.00 0.00 90 1019.9
20260506092812 12 316 0.0 0.0 0.00 0.00 0.00 90 1020.0
20260506092310 12 20 0.0 0.0 0.00 0.00 0.00 90 1020.0
20260506091807 12 12 1.6 1.6 0.00 0.00 0.00 90 1020.3
20260506091304 12 19 3.2 3.2 0.00 0.00 0.00 90 1020.1
20260506090802 12 11 0.0 0.0 0.00 0.00 0.00 90 1020.1
20260506090259 12 31 0.0 1.6 0.00 0.00 0.00 90 1020.1
20260506085755 12 348 1.6 1.6 0.00 0.00 0.00 90 1020.2
20260506085252 12 19 0.0 0.0 0.00 0.00 0.00 90 1020.1
20260506084748 12 317 1.6 3.2 0.00 0.00 0.00 90 1020.2
20260506084245 12 354 0.0 0.0 0.00 0.00 0.00 90 1020.0
20260506083742 12 15 3.2 4.8 0.00 0.00 0.00 89 1020.2
20260506083240 12 5 0.0 0.0 0.00 0.00 0.00 89 1020.1
20260506082737 12 306 3.2 3.2 0.00 0.00 0.00 89 1020.1
20260506082232 13 294 3.2 3.2 0.00 0.00 0.00 89 1020.1
20260506081730 13 18 1.6 1.6 0.00 0.00 0.00 89 1020.3
20260506081227 13 19 0.0 0.0 0.00 0.00 0.00 89 1020.2
20260506080726 13 351 0.0 0.0 0.00 0.00 0.00 89 1020.1
20260506080221 13 9 0.0 1.6 0.00 0.00 0.00 89 1020.1
20260506073206 13 27 0.0 0.0 0.00 0.00 0.00 89 1019.7
20260506072702 13 314 3.2 4.8 0.00 0.00 0.00 89 1019.7
20260506072200 13 14 0.0 0.0 0.00 0.00 0.00 89 1019.7
20260506071657 13 14 1.6 3.2 0.00 0.00 0.00 89 1019.6
20260506071155 13 28 0.0 0.0 0.00 0.00 0.00 89 1019.9
20260506070652 13 24 1.6 1.6 0.00 0.00 0.00 89 1019.7
20260506070148 13 354 0.0 0.0 0.00 0.00 0.00 89 1019.7
20260506062126 13 338 1.6 1.6 0.00 0.00 0.00 90 1019.7
20260506061621 12 4 0.0 0.0 0.00 0.00 0.00 90 1019.4
20260506061120 13 11 0.0 0.0 0.00 0.00 0.00 89 1019.4
20260506060618 13 13 0.0 0.0 0.00 0.00 0.00 89 1019.5
20260506060114 13 25 0.0 0.0 0.00 0.00 0.00 89 1019.3
20260506051046 13 341 1.6 1.6 0.00 0.00 0.00 86 1019.3
20260506050544 13 292 3.2 3.2 0.00 0.00 0.00 87 1019.1
20260506045035 13 330 3.2 6.4 0.00 0.00 0.00 86 1018.9
20260506044533 13 351 0.0 0.0 0.00 0.00 0.00 87 1018.8
20260506044029 13 16 0.0 0.0 0.00 0.00 0.00 87 1018.6
20260506043526 13 1 1.6 1.6 0.00 0.00 0.00 87 1018.8
20260506043025 13 356 1.6 1.6 0.00 0.00 0.00 87 1018.6
20260506042523 13 323 3.2 3.2 0.00 0.00 0.00 87 1018.8
20260506042021 13 10 4.8 9.7 0.00 0.00 0.00 87 1018.5
20260506041520 13 264 1.6 1.6 0.00 0.00 0.00 86 1018.5
20260506041016 13 340 1.6 1.6 0.00 0.00 0.00 86 1018.3
20260506040514 13 318 1.6 1.6 0.00 0.00 0.00 86 1018.3
20260506040009 13 284 1.6 4.8 0.00 0.00 0.00 85 1018.4
20260506035507 13 283 3.2 4.8 0.00 0.00 0.00 84 1018.2
20260506035003 13 309 3.2 6.4 0.00 0.00 0.00 84 1018.4
20260506034501 13 343 1.6 3.2 0.00 0.00 0.00 84 1018.2
20260506033957 13 269 3.2 3.2 0.00 0.00 0.00 83 1018.0
20260506033455 13 302 3.2 4.8 0.00 0.00 0.00 83 1017.9
20260506032951 13 279 3.2 4.8 0.00 0.00 0.00 82 1017.9
20260506032449 13 310 6.4 6.4 0.00 0.00 0.00 82 1017.6
20260506031945 14 304 8.0 11.3 0.00 0.00 0.00 82 1017.7
20260506031443 14 283 3.2 6.4 0.00 0.00 0.00 81 1017.6
20260506030940 14 285 3.2 4.8 0.00 0.00 0.00 81 1017.4
20260506030438 14 320 3.2 4.8 0.00 0.00 0.00 82 1017.6
20260506025935 14 300 4.8 4.8 0.00 0.00 0.00 81 1017.6
20260506025432 14 267 1.6 3.2 0.00 0.00 0.00 81 1017.4
20260506024928 14 326 1.6 1.6 0.00 0.00 0.00 80 1017.2
20260506024425 14 284 9.7 12.9 0.00 0.00 0.00 80 1017.4
20260506023921 14 295 1.6 1.6 0.00 0.00 0.00 80 1017.4
20260506023418 15 279 1.6 3.2 0.00 0.00 0.00 80 1017.4
20260506022915 15 290 6.4 11.3 0.00 0.00 0.00 79 1017.2
20260506022413 15 301 8.0 11.3 0.00 0.00 0.00 79 1017.1
20260506021910 15 343 9.7 14.5 0.00 0.00 0.00 78 1017.1
20260506021407 15 7 1.6 3.2 0.00 0.00 0.00 79 1017.0
20260506020904 15 252 4.8 6.4 0.00 0.00 0.00 78 1017.1
20260506020402 15 281 9.7 14.5 0.00 0.00 0.00 78 1017.1
20260506015859 15 288 9.7 12.9 0.00 0.00 0.00 77 1017.0
20260506015356 15 248 9.7 12.9 0.00 0.00 0.00 77 1017.0
20260506014853 15 339 4.8 9.7 0.00 0.00 0.00 77 1016.7
20260506014350 15 315 6.4 6.4 0.00 0.00 0.00 76 1016.8
20260506013847 15 350 0.0 1.6 0.00 0.00 0.00 77 1016.7
20260506013344 15 262 8.0 11.3 0.00 0.00 0.00 77 1016.9
20260506012840 15 276 4.8 4.8 0.00 0.00 0.00 77 1016.8
20260506012338 15 250 12.9 17.7 0.00 0.00 0.00 77 1016.9
20260506011835 15 313 6.4 11.3 0.00 0.00 0.00 77 1017.0
20260506011331 15 288 6.4 9.7 0.00 0.00 0.00 77 1016.9
20260506010829 16 322 11.3 14.5 0.00 0.00 0.00 76 1016.9
20260506010327 16 287 6.4 6.4 0.00 0.00 0.00 76 1016.8
20260506005823 16 4 9.7 14.5 0.00 0.00 0.00 76 1016.8
20260506005320 16 288 8.0 14.5 0.00 0.00 0.00 76 1016.8
20260506004816 16 285 9.7 11.3 0.00 0.00 0.00 75 1016.7
20260506004314 16 229 4.8 4.8 0.00 0.00 0.00 75 1016.7
20260506003810 16 346 6.4 9.7 0.00 0.00 0.00 75 1016.7
20260506003306 16 252 11.3 22.5 0.00 0.00 0.00 74 1016.5
20260506002803 17 289 6.4 9.7 0.00 0.00 0.00 73 1016.6
20260506002259 17 277 8.0 11.3 0.00 0.00 0.00 73 1016.4
20260506001755 17 6 6.4 9.7 0.00 0.00 0.00 73 1016.5
20260506001252 17 15 6.4 9.7 0.00 0.00 0.00 73 1016.4
20260506000749 17 274 3.2 4.8 0.00 0.00 0.00 73 1016.4
20260506000247 17 264 11.3 14.5 0.00 0.00 0.00 71 1016.3
20260505235743 18 247 9.7 14.5 0.00 0.00 0.00 71 1016.4
20260505235241 17 357 6.4 11.3 0.00 0.00 0.00 71 1016.5
20260505234738 18 277 14.5 16.1 0.00 0.00 0.00 70 1016.4
20260505234235 17 317 6.4 9.7 0.00 0.00 0.00 71 1016.5
20260505233732 18 289 9.7 16.1 0.00 0.00 0.00 71 1016.3
20260505233230 18 272 9.7 14.5 0.00 0.00 0.00 69 1016.5
20260505232727 18 226 9.7 12.9 0.00 0.00 0.00 69 1016.3
20260505232224 18 291 8.0 12.9 0.00 0.00 0.00 69 1016.4
20260505231721 19 16 1.6 1.6 0.00 0.00 0.00 68 1016.2
20260505231220 20 296 3.2 4.8 0.00 0.00 0.00 66 1016.2
20260505230717 19 296 8.0 11.3 0.00 0.00 0.00 68 1016.2
20260505230214 19 286 11.3 14.5 0.00 0.00 0.00 66 1016.1
20260505225710 19 304 4.8 9.7 0.00 0.00 0.00 68 1016.3
20260505225207 18 227 6.4 9.7 0.00 0.00 0.00 68 1016.2
20260505224703 18 286 8.0 11.3 0.00 0.00 0.00 68 1016.3
20260505224201 18 213 3.2 9.7 0.00 0.00 0.00 69 1016.2
20260505223658 18 258 4.8 6.4 0.00 0.00 0.00 69 1016.2
20260505223154 18 284 9.7 14.5 0.00 0.00 0.00 68 1016.3
20260505222650 18 284 3.2 4.8 0.00 0.00 0.00 68 1016.3
20260505222147 19 8 4.8 9.7 0.00 0.00 0.00 69 1016.3
20260505221644 19 21 0.0 0.0 0.00 0.00 0.00 68 1016.4
20260505221140 19 250 9.7 12.9 0.00 0.00 0.00 67 1016.4
20260505220638 20 280 8.0 11.3 0.00 0.00 0.00 66 1016.3
20260505220135 19 356 6.4 9.7 0.00 0.00 0.00 67 1016.5
20260505215632 18 250 4.8 6.4 0.00 0.00 0.00 68 1016.3
20260505215131 18 246 3.2 4.8 0.00 0.00 0.00 69 1016.4
20260505214629 19 282 4.8 4.8 0.00 0.00 0.00 67 1016.4
20260505214125 18 249 4.8 6.4 0.00 0.00 0.00 68 1016.4
20260505213623 20 318 4.8 4.8 0.00 0.00 0.00 67 1016.6
20260505213119 18 354 0.0 3.2 0.00 0.00 0.00 68 1016.6